Jindai

operational
NORAD ID: 16910 Int'l Des: 1986-061 Owner: NASDA Country: J
LEOCIRCULAR

Jindaiについて

説明を読み込み中...

リアルタイム位置

3D地球を読み込み中...

次回通過

高度履歴

Altitude vs Time

uPlot chart will show altitude changes over time

軌道要素

1 16910U 86061C 26061.13794401 -.00000071 00000-0 18942-3 0 9998
2 16910 50.0071 18.6517 0072784 5.1022 7.8304 12.32654358781241
Epoch: Mar 2, 2026 • Age: 31 hours

現在のステータス

高度 1483.7 km
速度 7.15 km/s
衛星直下点 20.68°N, 133.08°E
打ち上げ日 Aug 12, 1986
運用期間 39.5 years
タイプ other

技術仕様

分類 Payload
質量 294.00 kg
乾燥質量 294.00 kg
総質量 294.00 kg
長さ 1.50 m
直径 1.00 m
スパン 1.00 m
形状 Box
製造者 NAL
バスタイプ NASDA Attached
フェーズステータス Attached in Orbit
所有者/国 NASDA/J

大規模コンステレーション

Loading constellations...